Date,TemperatureHighF,TemperatureAvgF,TemperatureLowF,DewpointHighF,DewpointAvgF,DewpointLowF,HumidityHigh,HumidityAvg,HumidityLow,PressureMaxIn,PressureMinIn,WindSpeedMaxMPH,WindSpeedAvgMPH,GustSpeedMaxMPH,PrecipitationSumIn
2013-4-1,43,36,28,27,18,12,77,49,30,30.23,29.95,14,9,26,0.00
2013-4-2,47,35,23,19,15,8,77,48,21,30.33,30.23,13,7,23,0.00
2013-4-3,50,38,25,19,15,12,71,42,22,30.45,30.31,12,7,21,0.00
2013-4-4,59,46,31,23,19,16,61,37,21,30.31,30.01,9,4,9,0.00
2013-4-5,59,48,37,33,26,19,72,45,22,30.21,30.03,15,7,23,0.00
2013-4-6,69,56,43,49,32,19,74,41,27,30.08,29.66,31,18,59,0.15
2013-4-7,68,56,42,47,41,39,88,59,35,29.96,29.73,18,6,30,0.15
2013-4-8,73,64,57,57,52,39,93,67,47,29.88,29.62,22,11,38,0.47
2013-4-9,77,68,60,59,57,54,83,67,48,29.88,29.79,24,12,37,0.01
2013-4-10,68,47,42,59,44,40,96,89,72,29.93,29.72,24,14,36,1.92
2013-4-11,50,45,38,46,41,30,100,85,69,29.72,29.61,26,12,38,1.77
2013-4-12,43,39,37,35,32,29,89,73,62,29.92,29.63,17,12,33,0.01
2013-4-13,50,43,36,33,28,21,75,56,43,30.01,29.92,20,11,32,0.00
2013-4-14,75,60,46,51,42,33,70,53,34,29.95,29.60,25,15,40,0.02
2013-4-15,65,55,45,55,50,41,96,82,57,30.00,29.64,23,9,36,0.69
2013-4-16,52,47,42,41,37,34,91,70,51,30.19,29.95,10,7,10,0.52
2013-4-17,58,49,45,57,43,34,96,81,60,30.22,29.76,38,13,59,1.88
2013-4-18,62,54,40,60,51,32,96,89,72,29.78,29.47,26,15,49,2.67
2013-4-19,41,38,36,32,28,26,78,67,59,30.01,29.62,22,16,41,0.02
2013-4-20,49,40,30,28,25,22,78,56,35,30.37,30.01,10,6,21,0.02
2013-4-21,57,47,38,38,32,27,64,55,48,30.45,30.29,18,12,29,0.00
2013-4-22,61,51,43,43,36,32,68,57,47,30.31,30.02,10,8,10,0.00
2013-4-23,59,47,38,50,43,36,92,85,55,30.05,29.93,13,8,23,0.36
2013-4-24,50,42,36,36,31,27,93,68,44,30.17,29.98,12,8,23,0.10
2013-4-25,56,47,39,32,28,22,72,50,33,30.31,30.14,16,10,30,0.01
2013-4-26,64,53,44,45,38,29,79,57,49,30.33,30.25,18,12,30,0.00
2013-4-27,62,54,46,51,46,41,96,75,47,30.30,30.00,14,5,21,0.05
2013-4-28,67,58,52,52,51,49,96,79,54,30.00,29.84,12,6,12,0.05
2013-4-29,75,61,47,59,52,45,96,74,53,29.92,29.73,23,12,35,0.00
2013-4-30,84,72,60,60,56,52,89,61,34,29.92,29.76,21,15,36,0.00